User: anonymous   Login
Location: Albany
(35.0000°S, 118.0000°E)
Time: 22:41:11
(UTC-04:00)
Language:

Centaur D-1AR AC-48 - Orbit

View from above orbital plane
View from above orbital plane
View from above satellite
View from above satellite

Ground track
Ground track

The orbit data is extracted from the following two-line orbital elements,

1 10779U 78035B   16236.06281616 -.00000119 +00000-0 +28410-4 0  9996
2 10779 021.3321 172.8055 7161394 189.6108 346.8228 02.22651222311990
Epoch (UTC): 23 August 2016 01:30:27
Eccentricity: 0.7161394
inclination: 21.3321°
perigee height: 654 km
apogee height: 36136 km
right ascension of ascending node: 172.8055°
argument of perigee: 189.6108°
revolutions per day: 2.22651222
mean anomaly at epoch: 346.8228°
orbit number at epoch: 31199

The dashed part of the orbit path shows where the satellite is in the earth's shadow,  

DLR